Simultaneous Nadir Overpasses (SNOs) Predictions

Prediction of SNOs between AQUA and NPP Satellite Orbit:

Table of predicted SNOs for the next 14.0 days since TLE Epoch: 7/21/2012
Index Date (AQUA) Time (AQUA) Lat,Lon (AQUA) SZA (AQUA ) Date (NPP) Time (NPP) Lat,Lon (NPP) SZA (NPP ) Distance(km) Time Diff (sec)
1 07/21/2012 14:54:43 -76.17, 15.77 102.53 07/21/2012 14:53:29 -76.18, 15.76 102.47 0.86 74
2 07/21/2012 15:43:47 77.20,-172.99 76.23 07/21/2012 15:43:50 77.21,-172.94 76.22 1.21 3
3 07/24/2012 07:10:56 -76.81, 133.79 102.75 07/24/2012 07:10:09 -76.82, 133.90 102.74 2.95 47
4 07/24/2012 08:00:10 77.35, -56.53 76.59 07/24/2012 08:00:41 77.35, -56.57 76.57 1.12 31
5 07/26/2012 23:27:19 -76.99,-109.66 102.40 07/26/2012 23:27:00 -76.99,-109.62 102.40 0.97 19
6 07/27/2012 00:16:33 77.53, 60.07 76.94 07/27/2012 00:17:32 77.52, 59.97 76.92 2.55 59
7 07/29/2012 14:54:31 76.38,-163.55 78.95 07/29/2012 14:53:23 76.38,-163.53 79.00 0.47 68
8 07/29/2012 15:43:41 -77.21, 7.04 102.05 07/29/2012 15:43:50 -77.21, 7.03 102.06 0.13 9
9 08/01/2012 07:10:50 76.72, -46.49 79.18 08/01/2012 07:10:10 76.72, -46.47 79.21 0.41 40
10 08/01/2012 08:00:02 -77.45, 123.89 101.71 08/01/2012 08:00:39 -77.45, 123.87 101.74 0.30 37
11 08/03/2012 23:27:08 77.05, 70.58 79.45 08/03/2012 23:26:56 77.05, 70.63 79.45 1.26 12




NCC Satellite Simultaneous Nadir Overpasses (SNOs) Prediction Service
